Regional Weather Roundup
Issued by NWS Cleveland, OH

Home | Current Version | Previous Version | Graphics & Text | Print | Product List | Glossary On
Versions: 1 2 3 4 5 6 7 8 9 10 11 12 13 14 15 16 17 18 19 20 21 22 23 24 25 26 27 28 29 30 31 32 33 34 35 36 37 38 39 40 41 42 43 44 45 46 47 48 49 50
000
ASUS41 KCLE 202000
RWRCLE
OHIO REGIONAL WEATHER ROUNDUP
NATIONAL WEATHER SERVICE WILMINGTON, OH
400 PM EDT SUN AUG 20 2017

NOTE: "FAIR" INDICATES FEW OR NO CLOUDS BELOW 12,000 FEET WITH NO
SIGNIFICANT WEATHER AND/OR OBSTRUCTIONS TO VISIBILITY.

OHZ001>008-015>018-024>027-034-035-043-044-202100-
   NORTHWEST OHIO

CITY           SKY/WX    TMP DP  RH WIND       PRES   REMARKS
DEFIANCE       FAIR      83  64  52 CALM      30.05F
FINDLAY        FAIR      86  65  49 CALM      30.05F
TOLEDO EXPRESS FAIR      83  63  50 SW6       30.06F
TOLEDO EXEC    FAIR      85  63  47 CALM      30.06F
LIMA           FAIR      86  67  52 S9        30.05F
$$

OHZ009>014-019>023-028>033-038-089-202100-
   NORTHEAST OHIO

CITY           SKY/WX    TMP DP  RH WIND       PRES   REMARKS
CLE-HOPKINS    FAIR      88  61  40 VRB6      30.10F
CLE-LAKEFRONT  FAIR      79  66  64 NE9       30.08F
CUY CO. ARPT   MOSUNNY   84  64  51 NE9       30.11F
LORAIN-ELYRIA    N/A    N/A N/A N/A MISG      30.10F
ASHTABULA      FAIR      81  57  43 SE6       30.12F
AKRON-CANTON   FAIR      85  55  35 S7        30.12F
WOOSTER        NOT AVBL
MANSFIELD      FAIR      83  66  56 VRB6      30.11F
YOUNGSTOWN     FAIR      83  55  38 CALM      30.12F
$$

OHZ042-051>053-060>062-070>072-077>081-202100-
  SOUTHWEST OHIO

CITY           SKY/WX    TMP DP  RH WIND       PRES   REMARKS
CINC-COVINGTON PTSUNNY   86  67  52 SW7       30.07F
CINC-LUNKEN    PTSUNNY   90  69  50 SW10      30.05F HX  94
HAMILTON       FAIR      89  65  44 SW8       30.06F HX  91
DAYTON         NOT AVBL
WRIGHT-PAT AFB DRIZZLE   87  66  48 SW9G17    30.05F
DAYTON GENERAL FAIR      86  61  42 S8        30.06F
WILMINGTON     FAIR      86  70  58 S7        30.07F HX  90
$$

OHZ036-037-039>041-045>050-054>059-063>069-073>076-082>088-202100-
  CENTRAL AND SOUTHEAST OHIO

CITY           SKY/WX    TMP DP  RH WIND       PRES   REMARKS
COLUMBUS       PTSUNNY   87  68  52 S10       30.07F HX  90
OSU AIRPORT    FAIR      86  68  54 CALM      30.07F
BOLTON FIELD   MOSUNNY   84  72  65 SE7       30.08F
RICKENBACK AFB NOT AVBL
NEWARK         FAIR      84  66  54 SE8       30.09F
MARION         PTSUNNY   85  66  53 S10       30.08F
LANCASTER      FAIR      88  69  53 S8        30.09F HX  92
ZANESVILLE     FAIR      83  65  54 CALM      30.11S
NEW PHILLY     FAIR      84  64  50 S5        30.12F
$$




USA.gov is the U.S. government's official web portal to all federal, state and local government web resources and services.